KC4GS-13 Weather Reports


time (UTC)temp
C
wind
direction
speed
KPH
gust
KPH
rain 1hr
cm
rain 24hr
cm
rain mn
cm
humidity
%
barometer
mb
20260506161022 25 102 0.0 0.0 0.00 0.00 0.00 67 1017.6
20260506160520 25 99 1.6 1.6 0.00 0.00 0.00 67 1017.6
20260506160016 25 111 1.6 1.6 0.00 0.00 0.00 66 1017.6
20260506155515 25 99 1.6 1.6 0.00 0.00 0.00 66 1017.6
20260506153646 23 104 0.0 1.6 0.00 0.00 0.00 72 1017.6
20260506153143 23 117 0.0 1.6 0.00 0.00 0.00 73 1017.7
20260506152640 23 110 1.6 1.6 0.00 0.00 0.00 72 1017.6
20260506152138 23 127 1.6 1.6 0.00 0.00 0.00 73 1017.8
20260506151636 23 120 0.0 1.6 0.00 0.00 0.00 73 1017.4
20260506151133 23 156 3.2 3.2 0.00 0.00 0.00 73 1017.5
20260506150630 23 63 3.2 4.8 0.00 0.00 0.00 73 1017.3
20260506150127 23 114 0.0 0.0 0.00 0.00 0.00 74 1017.2
20260506145624 23 104 0.0 0.0 0.00 0.00 0.00 75 1017.0
20260506145120 22 106 0.0 1.6 0.00 0.00 0.00 75 1016.9
20260506144618 22 106 0.0 0.0 0.00 0.00 0.00 75 1016.8
20260506144114 22 119 3.2 3.2 0.00 0.00 0.00 76 1017.0
20260506143612 22 115 1.6 1.6 0.00 0.00 0.00 76 1016.9
20260506143110 22 126 1.6 1.6 0.00 0.00 0.00 77 1016.9
20260506142608 22 48 3.2 3.2 0.00 0.00 0.00 77 1017.0
20260506142106 22 109 0.0 0.0 0.00 0.00 0.00 78 1016.8
20260506141603 21 105 1.6 1.6 0.00 0.00 0.00 77 1016.8
20260506141102 21 110 1.6 1.6 0.00 0.00 0.00 79 1017.0
20260506140558 21 112 0.0 1.6 0.00 0.00 0.00 79 1016.7
20260506140056 21 109 0.0 1.6 0.00 0.00 0.00 79 1016.8
20260506135552 21 115 0.0 1.6 0.00 0.00 0.00 79 1016.9
20260506135049 21 103 0.0 1.6 0.00 0.00 0.00 79 1017.1
20260506134545 21 107 0.0 1.6 0.00 0.00 0.00 79 1016.8
20260506134041 21 111 0.0 0.0 0.00 0.00 0.00 79 1017.0
20260506133539 21 127 1.6 1.6 0.00 0.00 0.00 79 1017.0
20260506133035 21 111 0.0 0.0 0.00 0.00 0.00 80 1017.1
20260506132533 21 115 0.0 0.0 0.00 0.00 0.00 80 1017.0
20260506132030 20 121 1.6 1.6 0.00 0.00 0.00 81 1016.9
20260506131527 20 120 0.0 0.0 0.00 0.00 0.00 81 1016.6
20260506131023 20 115 0.0 0.0 0.00 0.00 0.00 82 1016.9
20260506130520 20 112 0.0 0.0 0.00 0.00 0.00 81 1016.7
20260506130018 20 119 0.0 0.0 0.00 0.00 0.00 82 1016.6
20260506125516 20 114 0.0 0.0 0.00 0.00 0.00 82 1016.7
20260506125013 20 108 0.0 0.0 0.00 0.00 0.00 83 1016.6
20260506124511 19 112 0.0 0.0 0.00 0.00 0.00 83 1016.6
20260506124009 19 112 0.0 0.0 0.00 0.00 0.00 83 1016.6
20260506123507 18 111 0.0 0.0 0.00 0.00 0.00 84 1016.5
20260506123004 18 119 0.0 1.6 0.00 0.00 0.00 84 1016.6
20260506122501 18 112 0.0 0.0 0.00 0.00 0.00 84 1016.6
20260506121959 18 116 0.0 0.0 0.00 0.00 0.00 85 1016.4
20260506121456 18 117 0.0 0.0 0.00 0.00 0.00 85 1016.3
20260506120952 18 110 0.0 0.0 0.00 0.00 0.00 86 1016.5
20260506120450 17 113 0.0 0.0 0.00 0.00 0.00 86 1016.3
20260506115947 17 112 0.0 0.0 0.00 0.00 0.00 86 1016.4
20260506115445 17 119 0.0 0.0 0.00 0.00 0.00 86 1016.3
20260506114943 17 111 0.0 0.0 0.00 0.00 0.00 87 1016.1
20260506114440 17 110 0.0 0.0 0.00 0.00 0.00 87 1016.1
20260506113939 17 110 0.0 0.0 0.00 0.00 0.00 88 1016.1
20260506113436 17 115 0.0 0.0 0.00 0.00 0.00 88 1016.2
20260506112932 16 110 0.0 0.0 0.00 0.00 0.00 89 1016.0
20260506112431 16 111 0.0 0.0 0.00 0.00 0.00 89 1016.0
20260506111927 16 111 0.0 0.0 0.00 0.00 0.00 89 1015.7
20260506111426 16 112 0.0 0.0 0.00 0.00 0.00 89 1015.2
20260506110922 16 113 0.0 0.0 0.00 0.00 0.00 89 1015.5
20260506110420 16 113 0.0 0.0 0.00 0.00 0.00 89 1015.6
20260506105916 16 113 0.0 0.0 0.00 0.00 0.00 89 1015.4
20260506105413 15 113 0.0 0.0 0.00 0.00 0.00 89 1015.5
20260506104910 15 118 0.0 0.0 0.00 0.00 0.00 89 1015.1
20260506104408 15 112 0.0 0.0 0.00 0.00 0.00 89 1014.9
20260506103906 15 115 0.0 0.0 0.00 0.00 0.00 89 1014.9
20260506103403 15 114 0.0 0.0 0.00 0.00 0.00 89 1015.1
20260506102900 15 115 0.0 0.0 0.00 0.00 0.00 89 1015.0
20260506102358 15 114 0.0 0.0 0.00 0.00 0.00 89 1015.0
20260506101855 15 117 0.0 0.0 0.00 0.00 0.00 89 1014.8
20260506101351 15 113 0.0 0.0 0.00 0.00 0.00 88 1015.0
20260506100849 15 117 0.0 0.0 0.00 0.00 0.00 88 1015.0
20260506100347 15 113 0.0 0.0 0.00 0.00 0.00 88 1015.0
20260506095845 15 113 0.0 0.0 0.00 0.00 0.00 88 1014.9
20260506095342 15 113 0.0 0.0 0.00 0.00 0.00 88 1015.1
20260506094839 15 113 0.0 0.0 0.00 0.00 0.00 88 1015.1
20260506094338 15 113 0.0 0.0 0.00 0.00 0.00 87 1015.1
20260506093835 16 111 0.0 0.0 0.00 0.00 0.00 87 1015.0
20260506093332 16 112 0.0 0.0 0.00 0.00 0.00 87 1014.9
20260506092830 16 111 0.0 0.0 0.00 0.00 0.00 87 1015.1
20260506092328 16 108 0.0 0.0 0.00 0.00 0.00 86 1015.3
20260506091824 16 113 0.0 0.0 0.00 0.00 0.00 86 1015.3
20260506091322 16 113 0.0 0.0 0.00 0.00 0.00 86 1015.4
20260506090819 16 114 0.0 0.0 0.00 0.00 0.00 85 1015.1
20260506090317 16 113 0.0 0.0 0.00 0.00 0.00 85 1015.2
20260506085813 16 114 0.0 0.0 0.00 0.00 0.00 85 1015.4
20260506085309 16 112 0.0 0.0 0.00 0.00 0.00 85 1015.5
20260506084806 16 114 0.0 0.0 0.00 0.00 0.00 85 1015.7
20260506084302 16 114 0.0 0.0 0.00 0.00 0.00 84 1015.9
20260506083759 16 118 0.0 0.0 0.00 0.00 0.00 84 1015.4
20260506083257 16 115 0.0 0.0 0.00 0.00 0.00 84 1015.8
20260506082754 16 115 0.0 0.0 0.00 0.00 0.00 84 1015.5
20260506082250 16 116 0.0 0.0 0.00 0.00 0.00 84 1015.8
20260506081747 16 116 0.0 0.0 0.00 0.00 0.00 84 1015.7
20260506081245 16 115 0.0 0.0 0.00 0.00 0.00 84 1015.8
20260506080743 16 116 0.0 0.0 0.00 0.00 0.00 83 1015.7
20260506080239 16 114 0.0 0.0 0.00 0.00 0.00 83 1015.7
20260506073223 17 115 0.0 0.0 0.00 0.00 0.00 81 1015.7
20260506072720 17 117 0.0 0.0 0.00 0.00 0.00 81 1015.8
20260506072218 17 116 0.0 0.0 0.00 0.00 0.00 81 1015.8
20260506071715 17 116 0.0 0.0 0.00 0.00 0.00 80 1015.7
20260506071213 17 115 0.0 0.0 0.00 0.00 0.00 80 1015.7
20260506070709 17 113 0.0 0.0 0.00 0.00 0.00 80 1015.6
20260506070207 17 116 0.0 0.0 0.00 0.00 0.00 80 1015.7
20260506062143 18 114 0.0 0.0 0.00 0.00 0.00 78 1015.4
20260506061639 18 118 0.0 0.0 0.00 0.00 0.00 78 1015.5
20260506061137 18 120 0.0 0.0 0.00 0.00 0.00 78 1015.5
20260506060635 18 113 0.0 0.0 0.00 0.00 0.00 78 1015.7
20260506060132 18 114 0.0 0.0 0.00 0.00 0.00 77 1015.7
20260506051104 18 111 0.0 0.0 0.00 0.00 0.00 77 1016.2
20260506050602 18 112 0.0 0.0 0.00 0.00 0.00 77 1016.5
20260506045052 18 115 0.0 0.0 0.00 0.00 0.00 76 1016.2
20260506044550 18 109 0.0 0.0 0.00 0.00 0.00 76 1016.4
20260506044047 18 112 0.0 0.0 0.00 0.00 0.00 76 1016.3
20260506043544 18 113 0.0 0.0 0.00 0.00 0.00 77 1016.4
20260506043042 18 136 0.0 0.0 0.00 0.00 0.00 76 1016.2
20260506042541 18 112 0.0 0.0 0.00 0.00 0.00 76 1016.3
20260506042039 18 111 0.0 0.0 0.00 0.00 0.00 76 1016.5
20260506041537 18 110 0.0 0.0 0.00 0.00 0.00 76 1016.4
20260506041033 18 114 0.0 0.0 0.00 0.00 0.00 76 1016.3
20260506040531 18 120 0.0 0.0 0.00 0.00 0.00 76 1016.2
20260506040027 18 113 0.0 0.0 0.00 0.00 0.00 75 1016.2
20260506035524 18 113 0.0 0.0 0.00 0.00 0.00 75 1016.1
20260506035021 18 111 0.0 0.0 0.00 0.00 0.00 76 1016.3
20260506034519 18 109 0.0 0.0 0.00 0.00 0.00 76 1016.1
20260506034015 18 110 0.0 0.0 0.00 0.00 0.00 76 1016.2
20260506033513 18 104 0.0 0.0 0.00 0.00 0.00 76 1016.0
20260506033010 18 102 0.0 0.0 0.00 0.00 0.00 76 1015.7
20260506032507 18 112 0.0 0.0 0.00 0.00 0.00 76 1015.9
20260506032003 17 105 0.0 0.0 0.00 0.00 0.00 76 1016.2
20260506031501 17 102 0.0 0.0 0.00 0.00 0.00 75 1016.2
20260506030958 17 100 0.0 0.0 0.00 0.00 0.00 75 1016.1
20260506030456 17 104 0.0 0.0 0.00 0.00 0.00 75 1016.0
20260506025953 17 102 0.0 0.0 0.00 0.00 0.00 75 1016.1
20260506025449 17 110 0.0 0.0 0.00 0.00 0.00 74 1016.1
20260506024946 17 111 0.0 0.0 0.00 0.00 0.00 75 1016.0
20260506024443 17 110 0.0 0.0 0.00 0.00 0.00 74 1015.7
20260506023938 17 108 0.0 0.0 0.00 0.00 0.00 74 1015.2
20260506023436 18 108 0.0 0.0 0.00 0.00 0.00 73 1015.6
20260506022932 18 107 0.0 0.0 0.00 0.00 0.00 73 1015.2
20260506022430 18 107 0.0 0.0 0.00 0.00 0.00 72 1015.6
20260506021928 18 108 0.0 0.0 0.00 0.00 0.00 72 1015.7
20260506021425 18 110 0.0 0.0 0.00 0.00 0.00 71 1015.3
20260506020922 18 109 0.0 0.0 0.00 0.00 0.00 71 1015.3
20260506020420 18 110 0.0 0.0 0.00 0.00 0.00 70 1015.4
20260506015916 18 110 0.0 0.0 0.00 0.00 0.00 69 1015.2
20260506015414 19 110 0.0 0.0 0.00 0.00 0.00 69 1015.2
20260506014911 19 109 0.0 0.0 0.00 0.00 0.00 68 1015.4
20260506014408 19 109 0.0 0.0 0.00 0.00 0.00 68 1015.2
20260506013904 20 110 0.0 0.0 0.00 0.00 0.00 67 1015.4
20260506013402 20 110 0.0 0.0 0.00 0.00 0.00 66 1015.6
20260506012858 20 112 0.0 0.0 0.00 0.00 0.00 66 1015.6
20260506012355 20 115 0.0 0.0 0.00 0.00 0.00 65 1015.3
20260506011852 20 110 0.0 0.0 0.00 0.00 0.00 64 1015.3
20260506011349 21 106 0.0 0.0 0.00 0.00 0.00 63 1015.2
20260506010846 21 106 0.0 0.0 0.00 0.00 0.00 62 1015.2
20260506010345 21 111 0.0 0.0 0.00 0.00 0.00 61 1015.4
20260506005841 21 111 0.0 0.0 0.00 0.00 0.00 61 1015.4
20260506005338 21 105 0.0 0.0 0.00 0.00 0.00 61 1015.4
20260506004833 21 110 0.0 0.0 0.00 0.00 0.00 59 1015.1
20260506004332 22 111 0.0 0.0 0.00 0.00 0.00 59 1015.1
20260506003827 22 113 0.0 0.0 0.00 0.00 0.00 57 1015.2
20260506003324 22 108 0.0 0.0 0.00 0.00 0.00 56 1014.9
20260506002820 22 112 0.0 0.0 0.00 0.00 0.00 55 1014.9
20260506002317 23 106 0.0 0.0 0.00 0.00 0.00 55 1015.0
20260506001812 23 119 0.0 0.0 0.00 0.00 0.00 55 1014.7
20260506001310 23 110 0.0 0.0 0.00 0.00 0.00 54 1014.8
20260506000807 24 108 0.0 0.0 0.00 0.00 0.00 53 1014.6
20260506000304 24 111 0.0 0.0 0.00 0.00 0.00 51 1014.5
20260505235801 25 104 0.0 0.0 0.00 0.00 0.00 50 1014.4
20260505235259 25 109 0.0 0.0 0.00 0.00 0.00 49 1014.2
20260505234755 25 116 0.0 0.0 0.00 0.00 0.00 48 1014.5
20260505234253 25 112 0.0 0.0 0.00 0.00 0.00 47 1014.3
20260505233750 25 116 0.0 0.0 0.00 0.00 0.00 47 1014.3
20260505233248 25 110 0.0 0.0 0.00 0.00 0.00 46 1014.3
20260505232744 25 130 0.0 1.6 0.00 0.00 0.00 45 1014.4
20260505232242 26 115 0.0 0.0 0.00 0.00 0.00 45 1014.7
20260505231738 26 112 0.0 0.0 0.00 0.00 0.00 45 1014.2
20260505231237 26 118 0.0 1.6 0.00 0.00 0.00 44 1014.6
20260505230735 26 118 0.0 0.0 0.00 0.00 0.00 44 1014.5
20260505230231 26 88 0.0 1.6 0.00 0.00 0.00 44 1014.4
20260505225728 26 112 0.0 0.0 0.00 0.00 0.00 44 1014.2
20260505225225 26 119 1.6 1.6 0.00 0.00 0.00 44 1014.7
20260505224720 27 128 1.6 1.6 0.00 0.00 0.00 43 1014.7
20260505224218 27 117 1.6 1.6 0.00 0.00 0.00 43 1014.7
20260505223716 27 140 1.6 1.6 0.00 0.00 0.00 43 1014.8
20260505223212 28 118 0.0 1.6 0.00 0.00 0.00 43 1014.8
20260505222708 28 125 1.6 1.6 0.00 0.00 0.00 41 1015.0
20260505222204 28 130 0.0 1.6 0.00 0.00 0.00 42 1014.7
20260505221701 28 139 0.0 1.6 0.00 0.00 0.00 41 1014.8
20260505221158 28 147 1.6 1.6 0.00 0.00 0.00 41 1014.6
20260505220655 29 128 1.6 1.6 0.00 0.00 0.00 41 1014.7
20260505220153 28 129 0.0 1.6 0.00 0.00 0.00 41 1014.8
20260505215650 28 106 1.6 1.6 0.00 0.00 0.00 40 1014.6
20260505215148 28 139 3.2 3.2 0.00 0.00 0.00 39 1015.0
20260505214646 29 143 1.6 1.6 0.00 0.00 0.00 39 1015.0
20260505214143 28 115 0.0 0.0 0.00 0.00 0.00 41 1015.0
20260505213640 28 117 0.0 1.6 0.00 0.00 0.00 40 1014.9
20260505213137 29 127 0.0 1.6 0.00 0.00 0.00 38 1015.0
20260505212632 30 130 0.0 1.6 0.00 0.00 0.00 38 1014.9
20260505212131 29 128 1.6 1.6 0.00 0.00 0.00 39 1014.9
20260505211627 28 125 0.0 1.6 0.00 0.00 0.00 39 1014.7
20260505211125 28 122 1.6 1.6 0.00 0.00 0.00 40 1014.7
20260505210621 29 126 1.6 1.6 0.00 0.00 0.00 39 1014.9
20260505210118 29 116 0.0 1.6 0.00 0.00 0.00 40 1015.0
20260505205615 29 108 0.0 0.0 0.00 0.00 0.00 39 1014.7
20260505205113 28 105 0.0 1.6 0.00 0.00 0.00 40 1014.7
20260505204610 29 107 1.6 3.2 0.00 0.00 0.00 38 1014.9
20260505204108 30 109 3.2 4.8 0.00 0.00 0.00 38 1015.1
20260505203604 28 105 0.0 1.6 0.00 0.00 0.00 39 1015.4
20260505203101 28 127 0.0 0.0 0.00 0.00 0.00 41 1015.3
20260505202557 28 117 1.6 1.6 0.00 0.00 0.00 40 1015.4
20260505202053 28 132 3.2 3.2 0.00 0.00 0.00 41 1015.4
20260505201550 28 110 0.0 0.0 0.00 0.00 0.00 39 1015.3
20260505201048 28 116 0.0 1.6 0.00 0.00 0.00 40 1015.5
20260505200545 29 165 1.6 1.6 0.00 0.00 0.00 40 1015.4
20260505200042 28 110 0.0 1.6 0.00 0.00 0.00 42 1015.5
20260505195538 28 137 1.6 3.2 0.00 0.00 0.00 40 1015.6
20260505195036 29 102 0.0 1.6 0.00 0.00 0.00 39 1015.7
20260505194533 29 112 0.0 1.6 0.00 0.00 0.00 39 1015.7
20260505194028 28 116 1.6 1.6 0.00 0.00 0.00 41 1015.7
20260505193526 30 110 0.0 0.0 0.00 0.00 0.00 38 1016.0
20260505193023 30 102 0.0 0.0 0.00 0.00 0.00 37 1016.0
20260505192521 30 111 0.0 0.0 0.00 0.00 0.00 38 1016.0
20260505192019 28 121 0.0 1.6 0.00 0.00 0.00 40 1016.4
20260505191517 27 121 1.6 1.6 0.00 0.00 0.00 42 1016.4
20260505191014 28 114 1.6 1.6 0.00 0.00 0.00 40 1016.3
20260505190509 28 135 0.0 1.6 0.00 0.00 0.00 41 1016.5
20260505190005 29 105 0.0 1.6 0.00 0.00 0.00 38 1016.5
20260505185502 28 110 0.0 1.6 0.00 0.00 0.00 39 1016.5
20260505184958 28 122 1.6 1.6 0.00 0.00 0.00 41 1016.7
20260505184455 28 114 1.6 1.6 0.00 0.00 0.00 42 1016.8
20260505183952 28 130 1.6 3.2 0.00 0.00 0.00 39 1017.0
20260505183449 28 132 1.6 1.6 0.00 0.00 0.00 42 1016.9
20260505182945 28 113 0.0 1.6 0.00 0.00 0.00 41 1016.9
20260505182442 28 122 1.6 3.2 0.00 0.00 0.00 41 1017.1
20260505181938 28 127 1.6 1.6 0.00 0.00 0.00 42 1016.9
20260505181436 28 105 1.6 1.6 0.00 0.00 0.00 43 1017.1
20260505180933 28 131 1.6 1.6 0.00 0.00 0.00 42 1017.6
20260505180429 28 127 1.6 1.6 0.00 0.00 0.00 42 1017.2
20260505175926 28 151 1.6 1.6 0.00 0.00 0.00 42 1017.2
20260505175422 28 162 1.6 1.6 0.00 0.00 0.00 40 1017.4
20260505174918 28 167 1.6 1.6 0.00 0.00 0.00 41 1017.3
20260505174416 28 154 3.2 3.2 0.00 0.00 0.00 41 1017.3
20260505173912 28 110 0.0 1.6 0.00 0.00 0.00 42 1017.2
20260505173408 27 103 1.6 1.6 0.00 0.00 0.00 42 1017.6
20260505172906 28 124 1.6 1.6 0.00 0.00 0.00 41 1017.6
20260505172404 27 160 1.6 3.2 0.00 0.00 0.00 42 1017.5
20260505171903 27 144 1.6 1.6 0.00 0.00 0.00 43 1017.4
20260505171400 27 127 1.6 1.6 0.00 0.00 0.00 43 1017.7
20260505170856 27 100 0.0 1.6 0.00 0.00 0.00 45 1017.7
20260505170354 26 117 1.6 1.6 0.00 0.00 0.00 45 1017.6
20260505165849 26 133 0.0 1.6 0.00 0.00 0.00 45 1017.8
20260505165344 26 120 1.6 1.6 0.00 0.00 0.00 47 1017.6
20260505164840 26 118 1.6 1.6 0.00 0.00 0.00 46 1017.7
20260505164337 26 130 0.0 1.6 0.00 0.00 0.00 46 1017.8
20260505163836 26 112 1.6 1.6 0.00 0.00 0.00 45 1017.9
20260505163334 26 117 0.0 1.6 0.00 0.00 0.00 47 1017.9
20260505162832 26 122 1.6 1.6 0.00 0.00 0.00 48 1017.9
20260505162328 26 110 0.0 0.0 0.00 0.00 0.00 49 1018.1
20260505161825 26 118 1.6 1.6 0.00 0.00 0.00 50 1018.0
20260505161322 26 110 1.6 1.6 0.00 0.00 0.00 49 1017.9